Home > Weather > Szczecin > Past weeks

Flag for Poland Past Weather in Szczecin, Poland — Yesterday and Last 2 Weeks

Now
84 °F

Passing clouds.


Feels Like: 84 °F
Forecast: 63 / 78 °F
Wind: 5 mph from Northeast

Location: Szczecin Airport

Current Time: Jul 25, 2016 at 6:00:46 PM

Latest Report: Jul 25, 2016 at 5:30 PM


Visibility: N/A

Pressure: 30.01 "Hg

Humidity: 45%

Dew Point: 61 °F

Location of SzczecinLocation

Past Weather in Szczecin — Graph

°F

Szczecin Temperature Yesterday

Maximum temperature yesterday: 77 °F (at 3:00 PM)
Minimum temperature yesterday: 61 °F (at 12:00 AM)
Average temperature yesterday: 69 °F

High & Low Weather Summary for the Past Weeks

 TemperatureHumidityPressure
High84 °F (Jul 25, 4:30 PM)100% (Jul 12, 3:30 AM)30.21 "Hg (Jul 12, 3:30 AM)
Low48 °F (Jul 20, 5:00 AM)37% (Jul 21, 5:00 PM)29.68 "Hg (Jul 11, 4:00 AM)
Average66 °F75%30.00 "Hg
* Reported Jul 10 5:00 PM — Jul 25 5:00 PM, Szczecin, Weather by CustomWeather, © 2016

Note: Actual official high and low records may vary slightly from our data, if they occured in-between our weather recording intervals... More about our weather records

Advertising

Szczecin Weather History for the Previous 24 Hours

Scroll right to see more
 ConditionsComfort  
Time TempWeatherWind HumidityBarometerVisibility
5:00 PM
Mon, Jul 25
82 °FSunny.7 mph42%30.01 "Hg10 mi
4:30 PM84 °FPassing clouds.6 mph43%30.01 "HgN/A
4:00 PM82 °FPassing clouds.5 mph45%30.01 "HgN/A
3:30 PM81 °FPassing clouds.5 mph54%30.01 "HgN/A
3:00 PM82 °FSunny.2 mph51%30.04 "Hg10 mi
2:30 PM81 °FScattered clouds.3 mph51%30.04 "HgN/A
2:00 PM81 °FScattered clouds.5 mph51%30.04 "HgN/A
1:30 PM81 °FPassing clouds.2 mph51%30.04 "HgN/A
1:00 PM81 °FPassing clouds.3 mph54%30.04 "HgN/A
12:30 PM77 °FBroken clouds.2 mph61%30.04 "HgN/A
12:00 PM77 °FPartly sunny.2 mph57%30.04 "HgN/A
11:30 AM79 °FScattered clouds.3 mph54%30.04 "HgN/A
11:00 AM77 °FPassing clouds.5 mph69%30.04 "HgN/A
10:30 AM75 °FPassing clouds.5 mph65%30.04 "HgN/A
10:00 AM75 °FPassing clouds.5 mph65%30.07 "HgN/A
9:30 AM75 °FSunny.2 mph69%30.07 "Hg10 mi
9:00 AM73 °FSunny.2 mph78%30.07 "Hg10 mi
8:30 AM72 °FSunny.3 mph78%30.07 "Hg10 mi
8:00 AM68 °FPassing clouds.5 mph83%30.07 "HgN/A
7:30 AM66 °FSunny.3 mph88%30.07 "Hg10 mi
7:00 AM64 °FSunny.5 mph94%30.07 "Hg10 mi
6:30 AM61 °FSunny.5 mph100%30.07 "Hg10 mi
6:00 AM59 °FFog.3 mph100%30.07 "Hg5 mi
5:30 AM59 °FFog.3 mph100%30.07 "Hg5 mi
5:00 AM61 °FFog.2 mph94%30.07 "Hg5 mi
4:30 AM61 °FClear.3 mph94%30.07 "Hg10 mi
4:00 AM61 °FClear.3 mph94%30.07 "Hg10 mi
3:30 AM61 °FClear.5 mph100%30.07 "Hg10 mi
3:00 AM63 °FClear.6 mph94%30.07 "Hg10 mi
2:30 AM63 °FClear.6 mph94%30.07 "Hg10 mi
2:00 AM63 °FClear.6 mph94%30.07 "Hg10 mi
1:30 AM63 °FClear.5 mph100%30.07 "Hg10 mi
1:00 AM64 °FPassing clouds.3 mph94%30.07 "HgN/A
12:30 AM66 °FClear.2 mph88%30.09 "Hg10 mi
12:00 AM66 °FClear.6 mph88%30.09 "Hg10 mi
11:30 PM
Sun, Jul 24
68 °FClear.8 mph83%30.07 "Hg10 mi
11:00 PM68 °FClear.7 mph88%30.09 "Hg10 mi
10:30 PM68 °FClear.7 mph88%30.09 "Hg10 mi
10:00 PM70 °FSunny.6 mph83%30.09 "Hg10 mi
9:30 PM70 °FSunny.7 mph83%30.09 "Hg10 mi
9:00 PM72 °FSunny.7 mph78%30.07 "Hg10 mi
8:30 PM73 °FSunny.7 mph74%30.07 "Hg10 mi
8:00 PM75 °FSunny.6 mph69%30.07 "Hg10 mi
7:30 PM77 °FSunny.3 mph61%30.07 "Hg10 mi
7:00 PM77 °FSunny.6 mph57%30.07 "Hg10 mi
6:30 PM77 °FPassing clouds.5 mph61%30.07 "HgN/A
6:00 PM77 °FScattered clouds.6 mph57%30.07 "HgN/A
Weather by CustomWeather, © 2016

See weather overviewHow to use our weather pages